Time,TemperatureF,DewpointF,PressureIn,WindDirection,WindDirectionDegrees,WindSpeedMPH,WindSpeedGustMPH,Humidity,HourlyPrecipIn,Conditions,Clouds,dailyrainin,SoftwareType,DateUTC
2013-03-31 00:02:00,46.0,42.0,30.08,North,5,0.0,0.0,86,0.00,,OVC,0.00,WeatherDisplay:10.37,2013-03-31 07:02:00,
2013-03-31 00:07:00,45.9,41.9,30.08,North,6,0.0,0.0,86,0.00,,OVC,0.00,WeatherDisplay:10.37,2013-03-31 07:07:00,
2013-03-31 00:17:00,45.6,41.7,30.08,North,4,0.0,0.0,86,0.00,,OVC,0.00,WeatherDisplay:10.37,2013-03-31 07:17:00,
2013-03-31 00:22:00,45.5,41.6,30.08,North,2,0.0,0.0,86,0.00,,OVC,0.00,WeatherDisplay:10.37,2013-03-31 07:22:00,
2013-03-31 00:27:00,45.5,41.6,30.07,North,6,0.0,0.0,86,0.00,,OVC,0.00,WeatherDisplay:10.37,2013-03-31 07:27:00,
2013-03-31 00:32:00,45.5,41.5,30.08,North,6,0.0,0.0,86,0.00,,OVC,0.00,WeatherDisplay:10.37,2013-03-31 07:32:00,
2013-03-31 00:42:00,45.3,41.4,30.07,North,1,0.0,0.0,86,0.00,,OVC,0.00,WeatherDisplay:10.37,2013-03-31 07:42:00,
2013-03-31 00:47:00,45.1,41.2,30.07,North,3,0.0,0.0,86,0.00,,OVC,0.00,WeatherDisplay:10.37,2013-03-31 07:47:00,
2013-03-31 00:52:00,45.0,41.1,30.07,North,3,0.0,0.0,86,0.00,,OVC,0.00,WeatherDisplay:10.37,2013-03-31 07:52:00,
2013-03-31 00:57:00,44.9,40.7,30.07,North,1,0.0,0.0,85,0.00,,OVC,0.00,WeatherDisplay:10.37,2013-03-31 07:57:00,
2013-03-31 01:07:00,44.7,40.8,30.07,North,3,0.0,0.0,86,0.00,,OVC,0.00,WeatherDisplay:10.37,2013-03-31 08:07:00,
2013-03-31 01:17:00,44.6,40.6,30.07,North,3,0.0,0.0,86,0.00,,OVC,0.00,WeatherDisplay:10.37,2013-03-31 08:17:00,
2013-03-31 01:22:00,44.5,40.6,30.07,North,4,0.0,0.0,86,0.00,,OVC,0.00,WeatherDisplay:10.37,2013-03-31 08:22:00,
2013-03-31 01:27:00,44.3,40.4,30.07,North,5,0.0,0.0,86,0.00,,OVC,0.00,WeatherDisplay:10.37,2013-03-31 08:27:00,
2013-03-31 01:37:00,44.1,40.2,30.07,North,3,0.0,0.0,86,0.00,,OVC,0.00,WeatherDisplay:10.37,2013-03-31 08:37:00,
2013-03-31 01:42:00,44.0,40.1,30.07,North,3,0.0,0.0,86,0.00,,OVC,0.00,WeatherDisplay:10.37,2013-03-31 08:42:00,
2013-03-31 01:47:00,43.9,40.0,30.07,North,1,0.0,0.0,86,0.00,,OVC,0.00,WeatherDisplay:10.37,2013-03-31 08:47:00,
2013-03-31 01:52:00,43.8,39.9,30.07,North,2,0.0,0.0,86,0.00,,OVC,0.00,WeatherDisplay:10.37,2013-03-31 08:52:00,
2013-03-31 01:57:00,43.7,39.8,30.07,North,4,0.0,0.0,86,0.00,,OVC,0.00,WeatherDisplay:10.37,2013-03-31 08:57:00,
2013-03-31 02:02:00,43.6,39.7,30.06,North,3,0.0,0.0,86,0.00,,OVC,0.00,WeatherDisplay:10.37,2013-03-31 09:02:00,
2013-03-31 02:07:00,43.5,39.3,30.06,North,2,0.0,0.0,85,0.00,,OVC,0.00,WeatherDisplay:10.37,2013-03-31 09:07:00,
2013-03-31 02:17:00,43.6,39.4,30.06,North,1,0.0,0.0,85,0.00,,OVC,0.00,WeatherDisplay:10.37,2013-03-31 09:17:00,
2013-03-31 02:27:00,43.6,39.1,30.06,North,5,0.0,0.0,84,0.00,,OVC,0.00,WeatherDisplay:10.37,2013-03-31 09:27:00,
2013-03-31 02:32:00,43.6,39.4,30.06,North,3,0.0,0.0,85,0.00,,OVC,0.00,WeatherDisplay:10.37,2013-03-31 09:32:00,
2013-03-31 02:37:00,43.5,39.3,30.05,North,3,0.0,0.0,85,0.00,,OVC,0.00,WeatherDisplay:10.37,2013-03-31 09:37:00,
2013-03-31 02:47:00,43.3,39.1,30.05,North,3,0.0,0.0,85,0.00,,OVC,0.00,WeatherDisplay:10.37,2013-03-31 09:47:00,
2013-03-31 02:57:00,43.1,38.9,30.05,North,4,0.0,0.0,85,0.00,,OVC,0.00,WeatherDisplay:10.37,2013-03-31 09:57:00,
2013-03-31 03:02:00,43.1,39.2,30.05,North,2,0.0,0.0,86,0.00,,OVC,0.00,WeatherDisplay:10.37,2013-03-31 10:02:00,
2013-03-31 03:07:00,43.0,39.1,30.04,North,4,0.0,0.0,86,0.00,,OVC,0.00,WeatherDisplay:10.37,2013-03-31 10:07:00,
2013-03-31 03:12:00,42.9,39.0,30.04,North,3,0.0,0.0,86,0.00,,OVC,0.00,WeatherDisplay:10.37,2013-03-31 10:12:00,
2013-03-31 03:17:00,42.8,39.2,30.04,North,1,0.0,0.0,87,0.00,,OVC,0.00,WeatherDisplay:10.37,2013-03-31 10:17:00,
2013-03-31 03:22:00,42.7,39.1,30.04,North,2,0.0,0.0,87,0.00,,OVC,0.00,WeatherDisplay:10.37,2013-03-31 10:22:00,
2013-03-31 03:32:00,42.5,38.9,30.04,North,3,0.0,0.0,87,0.00,,OVC,0.00,WeatherDisplay:10.37,2013-03-31 10:32:00,
2013-03-31 03:42:00,42.2,38.6,30.04,North,3,0.0,0.0,87,0.00,,OVC,0.00,WeatherDisplay:10.37,2013-03-31 10:42:00,
2013-03-31 03:52:00,42.1,38.8,30.04,North,1,0.0,0.0,88,0.00,,OVC,0.00,WeatherDisplay:10.37,2013-03-31 10:52:00,
2013-03-31 03:57:00,42.1,38.8,30.04,North,3,0.0,0.0,88,0.00,,OVC,0.00,WeatherDisplay:10.37,2013-03-31 10:57:00,
2013-03-31 04:02:00,42.2,38.6,30.03,North,2,0.0,0.0,87,0.00,,OVC,0.00,WeatherDisplay:10.37,2013-03-31 11:02:00,
2013-03-31 04:07:00,42.4,38.8,30.03,North,1,0.0,0.0,87,0.00,,OVC,0.00,WeatherDisplay:10.37,2013-03-31 11:07:00,
2013-03-31 04:12:00,42.5,38.6,30.03,North,1,0.0,0.0,86,0.00,,OVC,0.00,WeatherDisplay:10.37,2013-03-31 11:12:00,
2013-03-31 04:17:00,42.5,38.9,30.03,North,1,0.0,0.0,87,0.00,,OVC,0.00,WeatherDisplay:10.37,2013-03-31 11:17:00,
2013-03-31 04:27:00,42.7,38.8,30.03,North,1,0.0,0.0,86,0.00,,OVC,0.00,WeatherDisplay:10.37,2013-03-31 11:27:00,
2013-03-31 04:37:00,42.6,38.4,30.03,North,2,0.0,0.0,85,0.00,,OVC,0.00,WeatherDisplay:10.37,2013-03-31 11:37:00,
2013-03-31 04:42:00,42.5,38.3,30.03,North,1,0.0,0.0,85,0.00,,OVC,0.00,WeatherDisplay:10.37,2013-03-31 11:42:00,
2013-03-31 04:47:00,42.4,38.2,30.03,North,1,0.0,0.0,85,0.00,,OVC,0.00,WeatherDisplay:10.37,2013-03-31 11:47:00,
2013-03-31 04:57:00,42.5,38.3,30.03,North,2,0.0,0.0,85,0.00,,OVC,0.00,WeatherDisplay:10.37,2013-03-31 11:57:00,
2013-03-31 05:02:00,42.6,38.4,30.03,North,3,0.0,0.0,85,0.00,,OVC,0.00,WeatherDisplay:10.37,2013-03-31 12:02:00,
2013-03-31 05:07:00,42.6,38.4,30.03,North,2,0.0,0.0,85,0.00,,OVC,0.00,WeatherDisplay:10.37,2013-03-31 12:07:00,
2013-03-31 05:12:00,42.5,38.3,30.03,North,1,0.0,0.0,85,0.00,,OVC,0.00,WeatherDisplay:10.37,2013-03-31 12:12:00,
2013-03-31 05:17:00,42.4,38.2,30.03,North,1,0.0,0.0,85,0.00,,OVC,0.00,WeatherDisplay:10.37,2013-03-31 12:17:00,
2013-03-31 05:22:00,42.4,38.5,30.03,North,1,0.0,0.0,86,0.00,,OVC,0.00,WeatherDisplay:10.37,2013-03-31 12:22:00,
2013-03-31 05:37:00,42.8,38.9,30.03,North,2,0.0,0.0,86,0.00,,OVC,0.00,WeatherDisplay:10.37,2013-03-31 12:37:00,
2013-03-31 05:42:00,43.0,38.8,30.03,North,1,0.0,0.0,85,0.00,,OVC,0.00,WeatherDisplay:10.37,2013-03-31 12:42:00,
2013-03-31 05:47:00,43.1,38.6,30.03,North,3,0.0,0.0,84,0.00,,OVC,0.00,WeatherDisplay:10.37,2013-03-31 12:47:00,
2013-03-31 05:52:00,43.3,38.8,30.03,North,3,0.0,0.0,84,0.00,,OVC,0.00,WeatherDisplay:10.37,2013-03-31 12:52:00,
2013-03-31 05:57:00,43.4,38.6,30.03,North,3,0.0,0.0,83,0.00,,OVC,0.00,WeatherDisplay:10.37,2013-03-31 12:57:00,
2013-03-31 06:02:00,43.5,38.6,30.03,North,2,0.0,0.0,83,0.00,,OVC,0.00,WeatherDisplay:10.37,2013-03-31 13:02:00,
2013-03-31 06:07:00,43.5,38.6,30.03,North,1,0.0,0.0,83,0.00,,OVC,0.00,WeatherDisplay:10.37,2013-03-31 13:07:00,
2013-03-31 06:17:00,43.3,38.2,30.03,North,1,0.0,0.0,82,0.00,CLR,OVC,0.00,WeatherDisplay:10.37,2013-03-31 13:17:00,
2013-03-31 06:22:00,43.3,38.2,30.03,North,1,0.0,0.0,82,0.00,CLR,OVC,0.00,WeatherDisplay:10.37,2013-03-31 13:22:00,
2013-03-31 06:27:00,43.3,38.1,30.03,North,2,0.0,0.0,82,0.00,CLR,OVC,0.00,WeatherDisplay:10.37,2013-03-31 13:27:00,
2013-03-31 06:32:00,43.2,38.4,30.03,North,1,0.0,0.0,83,0.00,CLR,OVC,0.00,WeatherDisplay:10.37,2013-03-31 13:32:00,
2013-03-31 06:37:00,43.0,38.2,30.03,North,1,0.0,0.0,83,0.00,CLR,OVC,0.00,WeatherDisplay:10.37,2013-03-31 13:37:00,
2013-03-31 06:42:00,42.9,38.4,30.03,North,1,0.0,0.0,84,0.00,CLR,OVC,0.00,WeatherDisplay:10.37,2013-03-31 13:42:00,
2013-03-31 06:52:00,42.8,38.3,30.03,North,1,0.0,0.0,84,0.00,CLR,OVC,0.00,WeatherDisplay:10.37,2013-03-31 13:52:00,
2013-03-31 07:02:00,42.5,38.0,30.03,North,3,0.0,0.0,84,0.00,CLR,OVC,0.00,WeatherDisplay:10.37,2013-03-31 14:02:00,
2013-03-31 07:07:00,42.5,38.0,30.03,North,1,0.0,0.0,84,0.00,CLR,OVC,0.00,WeatherDisplay:10.37,2013-03-31 14:07:00,
2013-03-31 07:12:00,42.4,37.9,30.04,North,2,0.0,0.0,84,0.00,CLR,OVC,0.00,WeatherDisplay:10.37,2013-03-31 14:12:00,
2013-03-31 07:17:00,42.4,38.2,30.04,North,2,0.0,0.0,85,0.00,CLR,OVC,0.00,WeatherDisplay:10.37,2013-03-31 14:17:00,
2013-03-31 07:32:00,42.8,38.9,30.04,North,1,0.0,0.0,86,0.00,CLR,OVC,0.00,WeatherDisplay:10.37,2013-03-31 14:32:00,
2013-03-31 07:37:00,43.1,38.9,30.04,North,1,0.0,0.0,85,0.00,CLR,OVC,0.00,WeatherDisplay:10.37,2013-03-31 14:37:00,
2013-03-31 07:42:00,43.4,39.2,30.04,North,1,0.0,0.0,85,0.00,CLR,OVC,0.00,WeatherDisplay:10.37,2013-03-31 14:42:00,
2013-03-31 07:47:00,43.7,39.1,30.04,North,1,0.0,0.0,84,0.00,CLR,OVC,0.00,WeatherDisplay:10.37,2013-03-31 14:47:00,
2013-03-31 07:57:00,43.8,39.6,30.04,North,1,0.0,0.0,85,0.00,CLR,OVC,0.00,WeatherDisplay:10.37,2013-03-31 14:57:00,
2013-03-31 08:02:00,43.9,39.4,30.04,North,0,0.0,0.0,84,0.00,CLR,OVC,0.00,WeatherDisplay:10.37,2013-03-31 15:02:00,
2013-03-31 08:07:00,44.3,40.1,30.04,North,1,0.0,0.0,85,0.00,CLR,OVC,0.00,WeatherDisplay:10.37,2013-03-31 15:07:00,
2013-03-31 08:12:00,44.8,40.8,30.04,North,3,0.0,0.0,86,0.00,CLR,OVC,0.00,WeatherDisplay:10.37,2013-03-31 15:12:00,
2013-03-31 08:17:00,45.1,40.9,30.04,North,2,0.0,0.0,85,0.00,CLR,OVC,0.00,WeatherDisplay:10.37,2013-03-31 15:17:00,
2013-03-31 08:22:00,45.2,40.7,30.04,North,1,0.0,0.0,84,0.00,CLR,OVC,0.00,WeatherDisplay:10.37,2013-03-31 15:22:00,
2013-03-31 08:27:00,45.6,41.7,30.04,North,1,0.0,0.0,86,0.00,CLR,OVC,0.00,WeatherDisplay:10.37,2013-03-31 15:27:00,
2013-03-31 08:32:00,45.8,41.5,30.04,North,3,0.0,0.0,85,0.00,CLR,OVC,0.00,WeatherDisplay:10.37,2013-03-31 15:32:00,
2013-03-31 08:42:00,46.2,41.6,30.04,North,1,0.0,0.0,84,0.00,CLR,OVC,0.00,WeatherDisplay:10.37,2013-03-31 15:42:00,
2013-03-31 08:47:00,46.8,42.3,30.03,North,1,0.0,0.0,84,0.00,CLR,OVC,0.00,WeatherDisplay:10.37,2013-03-31 15:47:00,
2013-03-31 08:52:00,47.3,42.7,30.03,North,1,0.0,0.0,84,0.00,CLR,OVC,0.00,WeatherDisplay:10.37,2013-03-31 15:52:00,
2013-03-31 08:57:00,48.2,43.6,30.03,North,1,0.0,0.0,84,0.00,CLR,OVC,0.00,WeatherDisplay:10.37,2013-03-31 15:57:00,
2013-03-31 09:02:00,48.7,43.5,30.03,North,3,0.0,0.0,82,0.00,CLR,OVC,0.00,WeatherDisplay:10.37,2013-03-31 16:02:00,
2013-03-31 09:07:00,49.0,43.1,30.03,North,2,0.0,0.0,80,0.00,CLR,OVC,0.00,WeatherDisplay:10.37,2013-03-31 16:07:00,
2013-03-31 09:12:00,49.2,43.6,30.03,North,3,0.0,0.0,81,0.00,CLR,OVC,0.00,WeatherDisplay:10.37,2013-03-31 16:12:00,
2013-03-31 09:22:00,49.3,42.7,30.03,North,1,0.0,0.0,78,0.00,CLR,OVC,0.00,WeatherDisplay:10.37,2013-03-31 16:22:00,
2013-03-31 09:32:00,49.4,43.5,30.03,North,1,0.0,0.0,80,0.00,CLR,OVC,0.00,WeatherDisplay:10.37,2013-03-31 16:32:00,
2013-03-31 09:42:00,49.6,43.3,30.03,North,1,0.0,0.0,79,0.00,CLR,OVC,0.00,WeatherDisplay:10.37,2013-03-31 16:42:00,
2013-03-31 09:47:00,49.9,43.7,30.02,North,3,0.0,0.0,79,0.00,CLR,OVC,0.00,WeatherDisplay:10.37,2013-03-31 16:47:00,
2013-03-31 09:57:00,52.4,45.4,30.02,North,2,0.0,0.0,77,0.00,CLR,OVC,0.00,WeatherDisplay:10.37,2013-03-31 16:57:00,
2013-03-31 10:07:00,55.7,46.1,30.02,North,2,0.0,0.0,70,0.00,CLR,OVC,0.00,WeatherDisplay:10.37,2013-03-31 17:07:00,
2013-03-31 10:12:00,57.2,47.1,30.02,North,1,0.0,0.0,69,0.00,CLR,OVC,0.00,WeatherDisplay:10.37,2013-03-31 17:12:00,
2013-03-31 10:17:00,58.3,47.0,30.02,North,1,0.0,0.0,66,0.00,CLR,OVC,0.00,WeatherDisplay:10.37,2013-03-31 17:17:00,
2013-03-31 10:22:00,59.7,47.5,30.02,North,1,0.0,0.0,64,0.00,CLR,OVC,0.00,WeatherDisplay:10.37,2013-03-31 17:22:00,
2013-03-31 10:27:00,60.8,49.4,30.02,North,1,0.0,0.0,66,0.00,CLR,OVC,0.00,WeatherDisplay:10.37,2013-03-31 17:27:00,
2013-03-31 10:32:00,61.6,48.8,30.02,North,1,0.0,0.0,63,0.00,CLR,OVC,0.00,WeatherDisplay:10.37,2013-03-31 17:32:00,
2013-03-31 10:37:00,62.4,49.7,30.02,North,1,0.0,0.0,63,0.00,CLR,OVC,0.00,WeatherDisplay:10.37,2013-03-31 17:37:00,
2013-03-31 10:42:00,63.0,48.0,30.02,North,1,0.0,0.0,58,0.00,CLR,OVC,0.00,WeatherDisplay:10.37,2013-03-31 17:42:00,
2013-03-31 10:47:00,63.4,47.9,30.02,North,3,0.0,0.0,57,0.00,CLR,OVC,0.00,WeatherDisplay:10.37,2013-03-31 17:47:00,
2013-03-31 10:52:00,63.0,47.1,30.02,North,3,0.0,0.0,56,0.00,CLR,OVC,0.00,WeatherDisplay:10.37,2013-03-31 17:52:00,
2013-03-31 11:02:00,62.1,48.9,30.02,North,2,0.0,0.0,62,0.00,CLR,OVC,0.00,WeatherDisplay:10.37,2013-03-31 18:02:00,
2013-03-31 11:07:00,62.4,51.7,30.02,North,2,0.0,0.0,68,0.00,CLR,OVC,0.00,WeatherDisplay:10.37,2013-03-31 18:07:00,
2013-03-31 11:12:00,63.2,52.1,30.02,North,3,0.0,0.0,67,0.00,CLR,OVC,0.00,WeatherDisplay:10.37,2013-03-31 18:12:00,
2013-03-31 11:17:00,64.3,53.1,30.02,North,4,0.0,0.0,67,0.00,CLR,OVC,0.00,WeatherDisplay:10.37,2013-03-31 18:17:00,
2013-03-31 11:22:00,65.2,51.8,30.02,North,2,0.0,0.0,62,0.00,CLR,OVC,0.00,WeatherDisplay:10.37,2013-03-31 18:22:00,
2013-03-31 11:27:00,65.4,50.7,30.02,North,1,0.0,0.0,59,0.00,CLR,OVC,0.00,WeatherDisplay:10.37,2013-03-31 18:27:00,
2013-03-31 11:32:00,65.4,50.7,30.02,North,1,0.0,0.0,59,0.00,CLR,OVC,0.00,WeatherDisplay:10.37,2013-03-31 18:32:00,
2013-03-31 11:37:00,65.7,51.9,30.02,North,3,0.0,0.0,61,0.00,CLR,OVC,0.00,WeatherDisplay:10.37,2013-03-31 18:37:00,
2013-03-31 11:42:00,66.4,52.1,30.02,North,6,0.0,0.0,60,0.00,CLR,OVC,0.00,WeatherDisplay:10.37,2013-03-31 18:42:00,
2013-03-31 11:47:00,67.3,52.9,30.02,North,3,0.0,0.0,60,0.00,CLR,OVC,0.00,WeatherDisplay:10.37,2013-03-31 18:47:00,
2013-03-31 11:57:00,68.6,52.3,30.02,North,3,0.0,0.0,56,0.00,CLR,OVC,0.00,WeatherDisplay:10.37,2013-03-31 18:57:00,
2013-03-31 12:02:00,69.2,51.9,30.02,North,6,0.0,0.0,54,0.00,CLR,OVC,0.00,WeatherDisplay:10.37,2013-03-31 19:02:00,
2013-03-31 12:07:00,69.4,48.9,30.02,North,6,0.0,0.0,48,0.00,CLR,OVC,0.00,WeatherDisplay:10.37,2013-03-31 19:07:00,
2013-03-31 12:12:00,69.8,51.9,30.02,North,3,0.0,0.0,53,0.00,CLR,OVC,0.00,WeatherDisplay:10.37,2013-03-31 19:12:00,
2013-03-31 12:17:00,70.3,50.2,30.02,North,2,0.0,0.0,49,0.00,CLR,OVC,0.00,WeatherDisplay:10.37,2013-03-31 19:17:00,
2013-03-31 12:27:00,70.0,51.1,30.01,North,3,0.0,0.0,51,0.00,CLR,OVC,0.00,WeatherDisplay:10.37,2013-03-31 19:27:00,
2013-03-31 12:32:00,70.2,49.6,30.01,North,1,0.0,0.0,48,0.00,CLR,OVC,0.00,WeatherDisplay:10.37,2013-03-31 19:32:00,
2013-03-31 12:42:00,70.9,50.8,30.01,North,5,0.0,0.0,49,0.00,CLR,OVC,0.00,WeatherDisplay:10.37,2013-03-31 19:42:00,
2013-03-31 12:47:00,71.3,51.1,30.01,North,3,0.0,0.0,49,0.00,CLR,OVC,0.00,WeatherDisplay:10.37,2013-03-31 19:47:00,
2013-03-31 12:52:00,71.7,48.0,30.01,North,1,0.0,0.0,43,0.00,CLR,OVC,0.00,WeatherDisplay:10.37,2013-03-31 19:52:00,
2013-03-31 13:02:00,70.0,50.5,30.01,North,5,0.0,0.0,50,0.00,CLR,OVC,0.00,WeatherDisplay:10.37,2013-03-31 20:02:00,
2013-03-31 13:07:00,69.5,50.0,30.01,North,6,0.0,0.0,50,0.00,CLR,OVC,0.00,WeatherDisplay:10.37,2013-03-31 20:07:00,
2013-03-31 13:12:00,70.1,50.0,30.00,North,3,0.0,0.0,49,0.00,CLR,OVC,0.00,WeatherDisplay:10.37,2013-03-31 20:12:00,
2013-03-31 13:17:00,71.0,50.8,30.00,North,1,0.0,0.0,49,0.00,CLR,OVC,0.00,WeatherDisplay:10.37,2013-03-31 20:17:00,
2013-03-31 13:22:00,71.4,47.7,30.00,North,1,0.0,0.0,43,0.00,CLR,OVC,0.00,WeatherDisplay:10.37,2013-03-31 20:22:00,
2013-03-31 13:27:00,71.7,48.6,30.00,North,3,0.0,0.0,44,0.00,CLR,OVC,0.00,WeatherDisplay:10.37,2013-03-31 20:27:00,
2013-03-31 13:37:00,72.6,50.1,30.00,North,5,0.0,0.0,45,0.00,CLR,OVC,0.00,WeatherDisplay:10.37,2013-03-31 20:37:00,
2013-03-31 13:47:00,72.5,49.9,29.99,North,1,0.0,0.0,45,0.00,CLR,OVC,0.00,WeatherDisplay:10.37,2013-03-31 20:47:00,
2013-03-31 13:52:00,72.8,49.6,29.99,North,2,0.0,0.0,44,0.00,CLR,OVC,0.00,WeatherDisplay:10.37,2013-03-31 20:52:00,
2013-03-31 13:57:00,73.1,48.6,29.99,North,5,0.0,0.0,42,0.00,CLR,OVC,0.00,WeatherDisplay:10.37,2013-03-31 20:57:00,
2013-03-31 14:07:00,74.2,48.9,29.99,North,2,0.0,0.0,41,0.00,CLR,OVC,0.00,WeatherDisplay:10.37,2013-03-31 21:07:00,
2013-03-31 14:12:00,74.8,50.1,29.99,North,3,0.0,0.0,42,0.00,CLR,OVC,0.00,WeatherDisplay:10.37,2013-03-31 21:12:00,
2013-03-31 14:17:00,75.1,47.1,29.99,North,5,0.0,0.0,37,0.00,CLR,OVC,0.00,WeatherDisplay:10.37,2013-03-31 21:17:00,
2013-03-31 14:22:00,75.3,48.6,29.98,North,6,0.0,0.0,39,0.00,CLR,OVC,0.00,WeatherDisplay:10.37,2013-03-31 21:22:00,
2013-03-31 14:27:00,75.3,45.8,29.98,North,5,0.0,0.0,35,0.00,CLR,OVC,0.00,WeatherDisplay:10.37,2013-03-31 21:27:00,
2013-03-31 14:32:00,74.9,48.9,29.98,North,2,0.0,0.0,40,0.00,CLR,OVC,0.00,WeatherDisplay:10.37,2013-03-31 21:32:00,
2013-03-31 14:42:00,75.3,47.2,29.98,North,3,0.0,0.0,37,0.00,CLR,OVC,0.00,WeatherDisplay:10.37,2013-03-31 21:42:00,
2013-03-31 14:47:00,75.6,46.8,29.98,North,5,0.0,0.0,36,0.00,CLR,OVC,0.00,WeatherDisplay:10.37,2013-03-31 21:47:00,
2013-03-31 14:52:00,75.7,47.6,29.97,North,3,0.0,0.0,37,0.00,CLR,OVC,0.00,WeatherDisplay:10.37,2013-03-31 21:52:00,
2013-03-31 14:57:00,75.8,47.7,29.97,North,1,0.0,0.0,37,0.00,CLR,OVC,0.00,WeatherDisplay:10.37,2013-03-31 21:57:00,
2013-03-31 15:02:00,75.7,45.3,29.97,North,4,0.0,0.0,34,0.00,,OVC,0.00,WeatherDisplay:10.37,2013-03-31 22:02:00,
2013-03-31 15:07:00,75.6,46.0,29.97,North,3,0.0,0.0,35,0.00,,OVC,0.00,WeatherDisplay:10.37,2013-03-31 22:07:00,
2013-03-31 15:17:00,74.8,45.3,29.96,North,5,0.0,0.0,35,0.00,,OVC,0.00,WeatherDisplay:10.37,2013-03-31 22:17:00,
2013-03-31 15:22:00,73.6,47.8,29.96,North,5,0.0,0.0,40,0.00,,OVC,0.00,WeatherDisplay:10.37,2013-03-31 22:22:00,
2013-03-31 15:27:00,72.8,44.2,29.96,North,2,0.0,0.0,36,0.00,,OVC,0.00,WeatherDisplay:10.37,2013-03-31 22:27:00,
2013-03-31 15:37:00,71.2,46.3,29.95,North,4,0.0,0.0,41,0.00,,OVC,0.00,WeatherDisplay:10.37,2013-03-31 22:37:00,
2013-03-31 15:42:00,70.6,45.7,29.95,North,6,0.0,0.0,41,0.00,,OVC,0.00,WeatherDisplay:10.37,2013-03-31 22:42:00,
2013-03-31 15:47:00,69.8,43.7,29.95,North,6,0.0,0.0,39,0.00,,OVC,0.00,WeatherDisplay:10.37,2013-03-31 22:47:00,
2013-03-31 15:57:00,68.8,46.0,29.95,North,4,0.0,0.0,44,0.00,,OVC,0.00,WeatherDisplay:10.37,2013-03-31 22:57:00,
2013-03-31 16:02:00,68.5,45.7,29.95,North,5,0.0,0.0,44,0.00,,OVC,0.00,WeatherDisplay:10.37,2013-03-31 23:02:00,
2013-03-31 16:07:00,68.1,46.5,29.95,North,4,0.0,0.0,46,0.00,,OVC,0.00,WeatherDisplay:10.37,2013-03-31 23:07:00,
2013-03-31 16:12:00,67.7,43.2,29.94,North,3,0.0,0.0,41,0.00,,OVC,0.00,WeatherDisplay:10.37,2013-03-31 23:12:00,
2013-03-31 16:17:00,67.4,45.4,29.94,North,4,0.0,0.0,45,0.00,,OVC,0.00,WeatherDisplay:10.37,2013-03-31 23:17:00,
2013-03-31 16:22:00,67.2,45.1,29.94,North,4,0.0,0.0,45,0.00,,OVC,0.00,WeatherDisplay:10.37,2013-03-31 23:22:00,
2013-03-31 16:32:00,66.8,43.0,29.94,North,7,0.0,0.0,42,0.00,,OVC,0.00,WeatherDisplay:10.37,2013-03-31 23:32:00,
2013-03-31 16:37:00,66.8,43.6,29.94,North,5,0.0,0.0,43,0.00,,OVC,0.00,WeatherDisplay:10.37,2013-03-31 23:37:00,
2013-03-31 16:42:00,66.8,45.9,29.94,North,6,0.0,0.0,47,0.00,,OVC,0.00,WeatherDisplay:10.37,2013-03-31 23:42:00,
2013-03-31 16:47:00,66.6,43.4,29.93,North,3,0.0,0.0,43,0.00,,OVC,0.00,WeatherDisplay:10.37,2013-03-31 23:47:00,
2013-03-31 16:52:00,66.5,45.1,29.93,North,3,0.0,0.0,46,0.00,,OVC,0.00,WeatherDisplay:10.37,2013-03-31 23:52:00,
2013-03-31 16:57:00,66.5,46.2,29.93,North,6,0.0,0.0,48,0.00,,OVC,0.00,WeatherDisplay:10.37,2013-03-31 23:57:00,
2013-03-31 17:02:00,66.5,46.8,29.93,North,5,0.0,0.0,49,0.00,,OVC,0.00,WeatherDisplay:10.37,2013-04-01 00:02:00,
2013-03-31 17:07:00,66.8,47.1,29.93,North,2,0.0,0.0,49,0.00,,OVC,0.00,WeatherDisplay:10.37,2013-04-01 00:07:00,
2013-03-31 17:12:00,67.6,47.2,29.93,North,5,0.0,0.0,48,0.00,,OVC,0.00,WeatherDisplay:10.37,2013-04-01 00:12:00,
2013-03-31 17:22:00,68.7,47.1,29.93,North,2,0.0,0.0,46,0.00,,OVC,0.00,WeatherDisplay:10.37,2013-04-01 00:22:00,
2013-03-31 17:27:00,68.8,47.7,29.93,North,5,0.0,0.0,47,0.00,,OVC,0.00,WeatherDisplay:10.37,2013-04-01 00:27:00,
2013-03-31 17:32:00,68.9,47.3,29.93,North,3,0.0,0.0,46,0.00,,OVC,0.00,WeatherDisplay:10.37,2013-04-01 00:32:00,
2013-03-31 17:42:00,69.3,47.7,29.92,North,5,0.0,0.0,46,0.00,,OVC,0.00,WeatherDisplay:10.37,2013-04-01 00:42:00,
2013-03-31 17:47:00,69.9,47.6,29.92,North,1,0.0,0.0,45,0.00,,OVC,0.00,WeatherDisplay:10.37,2013-04-01 00:47:00,
2013-03-31 17:57:00,70.7,47.7,29.92,North,6,0.0,0.0,44,0.00,,OVC,0.00,WeatherDisplay:10.37,2013-04-01 00:57:00,
2013-03-31 18:02:00,71.0,47.3,29.92,North,5,0.0,0.0,43,0.00,,OVC,0.00,WeatherDisplay:10.37,2013-04-01 01:02:00,
2013-03-31 18:07:00,71.3,48.3,29.92,North,3,0.0,0.0,44,0.00,,OVC,0.00,WeatherDisplay:10.37,2013-04-01 01:07:00,
2013-03-31 18:12:00,71.8,48.7,29.92,North,6,0.0,0.0,44,0.00,,OVC,0.00,WeatherDisplay:10.37,2013-04-01 01:12:00,
2013-03-31 18:17:00,72.4,48.0,29.92,North,4,0.0,0.0,42,0.00,,OVC,0.00,WeatherDisplay:10.37,2013-04-01 01:17:00,
2013-03-31 18:27:00,72.1,49.6,29.92,North,4,0.0,0.0,45,0.00,,OVC,0.00,WeatherDisplay:10.37,2013-04-01 01:27:00,
2013-03-31 18:32:00,71.4,47.7,29.92,North,3,0.0,0.0,43,0.00,,OVC,0.00,WeatherDisplay:10.37,2013-04-01 01:32:00,
2013-03-31 18:42:00,69.2,47.0,29.92,North,4,0.0,0.0,45,0.00,,OVC,0.00,WeatherDisplay:10.37,2013-04-01 01:42:00,
2013-03-31 18:47:00,68.1,47.7,29.92,North,3,0.0,0.0,48,0.00,,OVC,0.00,WeatherDisplay:10.37,2013-04-01 01:47:00,
2013-03-31 18:52:00,67.0,47.7,29.92,North,6,0.0,0.0,50,0.00,,OVC,0.00,WeatherDisplay:10.37,2013-04-01 01:52:00,
2013-03-31 19:02:00,65.1,48.5,29.92,North,3,0.0,0.0,55,0.00,CLR,OVC,0.00,WeatherDisplay:10.37,2013-04-01 02:02:00,
2013-03-31 19:07:00,64.2,48.2,29.92,North,3,0.0,0.0,56,0.00,CLR,OVC,0.00,WeatherDisplay:10.37,2013-04-01 02:07:00,
2013-03-31 19:12:00,63.4,47.4,29.92,North,3,0.0,0.0,56,0.00,CLR,OVC,0.00,WeatherDisplay:10.37,2013-04-01 02:12:00,
2013-03-31 19:17:00,62.6,47.6,29.92,North,4,0.0,0.0,58,0.00,CLR,OVC,0.00,WeatherDisplay:10.37,2013-04-01 02:17:00,
2013-03-31 19:22:00,61.9,47.4,29.92,North,4,0.0,0.0,59,0.00,CLR,OVC,0.00,WeatherDisplay:10.37,2013-04-01 02:22:00,
2013-03-31 19:27:00,61.1,47.1,29.92,North,6,0.0,0.0,60,0.00,CLR,OVC,0.00,WeatherDisplay:10.37,2013-04-01 02:27:00,
2013-03-31 19:32:00,60.3,46.8,29.92,North,3,0.0,0.0,61,0.00,CLR,OVC,0.00,WeatherDisplay:10.37,2013-04-01 02:32:00,
2013-03-31 19:37:00,59.6,46.5,29.92,North,5,0.0,0.0,62,0.00,CLR,OVC,0.00,WeatherDisplay:10.37,2013-04-01 02:37:00,
2013-03-31 19:42:00,59.0,46.4,29.92,North,4,0.0,0.0,63,0.00,CLR,OVC,0.00,WeatherDisplay:10.37,2013-04-01 02:42:00,
2013-03-31 19:47:00,58.5,45.5,29.92,North,5,0.0,0.0,62,0.00,CLR,OVC,0.00,WeatherDisplay:10.37,2013-04-01 02:47:00,
2013-03-31 19:52:00,58.0,45.8,29.92,North,6,0.0,0.0,64,0.00,CLR,OVC,0.00,WeatherDisplay:10.37,2013-04-01 02:52:00,
2013-03-31 19:57:00,57.5,45.8,29.92,North,6,0.0,0.0,65,0.00,CLR,OVC,0.00,WeatherDisplay:10.37,2013-04-01 02:57:00,
2013-03-31 20:02:00,57.3,45.6,29.92,North,6,0.0,0.0,65,0.00,,OVC,0.00,WeatherDisplay:10.37,2013-04-01 03:02:00,
2013-03-31 20:07:00,57.0,45.4,29.92,North,3,0.0,0.0,65,0.00,,OVC,0.00,WeatherDisplay:10.37,2013-04-01 03:07:00,
2013-03-31 20:12:00,56.8,45.2,29.92,North,3,0.0,0.0,65,0.00,,OVC,0.00,WeatherDisplay:10.37,2013-04-01 03:12:00,
2013-03-31 20:17:00,56.5,44.9,29.92,North,4,0.0,0.0,65,0.00,,OVC,0.00,WeatherDisplay:10.37,2013-04-01 03:17:00,
2013-03-31 20:27:00,55.9,45.1,29.92,North,3,0.0,0.0,67,0.00,,OVC,0.00,WeatherDisplay:10.37,2013-04-01 03:27:00,
2013-03-31 20:32:00,55.6,45.2,29.93,North,4,0.0,0.0,68,0.00,,OVC,0.00,WeatherDisplay:10.37,2013-04-01 03:32:00,
2013-03-31 20:37:00,55.3,44.9,29.93,North,5,0.0,0.0,68,0.00,,OVC,0.00,WeatherDisplay:10.37,2013-04-01 03:37:00,
2013-03-31 20:42:00,55.1,45.5,29.93,North,4,0.0,0.0,70,0.00,,OVC,0.00,WeatherDisplay:10.37,2013-04-01 03:42:00,
2013-03-31 20:52:00,54.6,45.4,29.93,North,5,0.0,0.0,71,0.00,,OVC,0.00,WeatherDisplay:10.37,2013-04-01 03:52:00,
2013-03-31 20:57:00,54.4,45.2,29.93,North,1,0.0,0.0,71,0.00,,OVC,0.00,WeatherDisplay:10.37,2013-04-01 03:57:00,
2013-03-31 21:02:00,54.1,45.3,29.93,North,4,0.0,0.0,72,0.00,,OVC,0.00,WeatherDisplay:10.37,2013-04-01 04:02:00,
2013-03-31 21:12:00,53.9,45.8,29.94,North,5,0.0,0.0,74,0.00,,OVC,0.00,WeatherDisplay:10.37,2013-04-01 04:12:00,
2013-03-31 21:17:00,53.8,45.7,29.94,North,5,0.0,0.0,74,0.00,,OVC,0.00,WeatherDisplay:10.37,2013-04-01 04:17:00,
2013-03-31 21:22:00,53.6,45.5,29.94,North,4,0.0,0.0,74,0.00,,OVC,0.00,WeatherDisplay:10.37,2013-04-01 04:22:00,
2013-03-31 21:32:00,53.2,45.5,29.94,North,7,0.0,0.0,75,0.00,,OVC,0.00,WeatherDisplay:10.37,2013-04-01 04:32:00,
2013-03-31 21:37:00,53.1,45.4,29.94,North,3,0.0,0.0,75,0.00,,OVC,0.00,WeatherDisplay:10.37,2013-04-01 04:37:00,
2013-03-31 21:42:00,53.0,45.6,29.94,North,4,0.0,0.0,76,0.00,,OVC,0.00,WeatherDisplay:10.37,2013-04-01 04:42:00,
2013-03-31 21:47:00,52.9,45.5,29.94,North,3,0.0,0.0,76,0.00,,OVC,0.00,WeatherDisplay:10.37,2013-04-01 04:47:00,
2013-03-31 21:52:00,52.8,45.4,29.95,North,3,0.0,0.0,76,0.00,,OVC,0.00,WeatherDisplay:10.37,2013-04-01 04:52:00,
2013-03-31 21:57:00,52.6,45.2,29.95,North,4,0.0,0.0,76,0.00,,OVC,0.00,WeatherDisplay:10.37,2013-04-01 04:57:00,
2013-03-31 22:07:00,52.1,45.1,29.95,North,5,0.0,0.0,77,0.00,,OVC,0.00,WeatherDisplay:10.37,2013-04-01 05:07:00,
2013-03-31 22:17:00,51.7,45.0,29.95,North,5,0.0,0.0,78,0.00,,OVC,0.00,WeatherDisplay:10.37,2013-04-01 05:17:00,
2013-03-31 22:22:00,51.5,44.5,29.95,North,3,0.0,0.0,77,0.00,,OVC,0.00,WeatherDisplay:10.37,2013-04-01 05:22:00,
2013-03-31 22:27:00,51.8,44.8,29.95,North,5,0.0,0.0,77,0.00,,OVC,0.00,WeatherDisplay:10.37,2013-04-01 05:27:00,
2013-03-31 22:32:00,51.9,44.6,29.95,North,3,0.0,0.0,76,0.00,,OVC,0.00,WeatherDisplay:10.37,2013-04-01 05:32:00,
2013-03-31 22:37:00,52.0,44.6,29.95,North,0,0.0,0.0,76,0.00,,OVC,0.00,WeatherDisplay:10.37,2013-04-01 05:37:00,
2013-03-31 22:42:00,51.8,43.8,29.95,North,2,0.0,0.0,74,0.00,,OVC,0.00,WeatherDisplay:10.37,2013-04-01 05:42:00,
2013-03-31 22:47:00,51.7,43.7,29.95,North,6,0.0,0.0,74,0.00,,OVC,0.00,WeatherDisplay:10.37,2013-04-01 05:47:00,
2013-03-31 22:52:00,51.4,43.4,29.95,North,3,0.0,0.0,74,0.00,,OVC,0.00,WeatherDisplay:10.37,2013-04-01 05:52:00,
2013-03-31 22:57:00,51.2,43.2,29.96,North,1,0.0,0.0,74,0.00,,OVC,0.00,WeatherDisplay:10.37,2013-04-01 05:57:00,
2013-03-31 23:02:00,50.9,42.9,29.96,North,3,0.0,0.0,74,0.00,,OVC,0.00,WeatherDisplay:10.37,2013-04-01 06:02:00,
2013-03-31 23:07:00,50.7,43.1,29.96,North,1,0.0,0.0,75,0.00,,OVC,0.00,WeatherDisplay:10.37,2013-04-01 06:07:00,
2013-03-31 23:17:00,50.3,43.0,29.96,North,2,0.0,0.0,76,0.00,,OVC,0.00,WeatherDisplay:10.37,2013-04-01 06:17:00,
2013-03-31 23:22:00,50.1,43.2,29.96,North,1,0.0,0.0,77,0.00,,OVC,0.00,WeatherDisplay:10.37,2013-04-01 06:22:00,
2013-03-31 23:27:00,50.0,43.4,29.96,North,4,0.0,0.0,78,0.00,,OVC,0.00,WeatherDisplay:10.37,2013-04-01 06:27:00,
2013-03-31 23:32:00,49.8,43.2,29.96,North,3,0.0,0.0,78,0.00,,OVC,0.00,WeatherDisplay:10.37,2013-04-01 06:32:00,
2013-03-31 23:42:00,49.5,43.3,29.96,North,2,0.0,0.0,79,0.00,,OVC,0.00,WeatherDisplay:10.37,2013-04-01 06:42:00,
2013-03-31 23:47:00,49.4,43.5,29.97,North,4,0.0,0.0,80,0.00,,OVC,0.00,WeatherDisplay:10.37,2013-04-01 06:47:00,
2013-03-31 23:52:00,49.2,43.3,29.97,North,4,0.0,0.0,80,0.00,,OVC,0.00,WeatherDisplay:10.37,2013-04-01 06:52:00,